Location: Passo di Treia
(43.2833°N, 13.3333°E)
Time: 14:53:06
(UTC+00:00)

FengYun 1-2 T - Pass Details

Date: 09 December 2019
Orbit: 847 x 880 km, 98.7° (Epoch: 28 January)

Event Time Altitude Azimuth Distance (km) Brightness Sun altitude
Rises 17:13:31 0° 163° (SSE) 3,395 7.3 -18.0°
Reaches altitude 10° 17:15:52 10° 164° (SSE) 2,463 6.6 -18.4°
Maximum altitude 17:21:20 88° 73° (ENE) 855 4.1 -19.4°
Drops below altitude 10° 17:26:52 10° 347° (NNW) 2,488 6.6 -20.3°
Sets 17:29:15 0° 347° (NNW) 3,431 7.4 -20.8°
